Location: Leiter
(44.7178°N, 106.2687°W)
Time: 02:24:16
(UTC+00:00)

CUTE 1.7 + AOD 2 - Pass Details

Date: 01 July 2022
Orbit: 589 x 608 km, 97.7° (Epoch: 17 August)

Event Time Altitude Azimuth Distance (km) Brightness Sun altitude
Rises 10:09:34 0° 25° (NNE) 2,852 ? -10.7°
Reaches altitude 10° 10:12:06 10° 39° (NE) 1,940 ? -10.4°
Maximum altitude 10:15:31 24° 94° (E) 1,254 ? -10.0°
Drops below altitude 10° 10:18:54 10° 148° (SSE) 1,919 ? -9.5°
Sets 10:21:23 0° 163° (SSE) 2,812 ? -9.2°
